This is the latest recevied weather packets stored in our database for station/object KO4LCK. If no packets are shown the sender has not sent any weather packets the latest 10 day(s).
| Time | Temp. | Humidity | Pressure | Rain* | Wind** | Luminosity | Snow |
|---|---|---|---|---|---|---|---|
| 1777564123 | 18.89° C | 63% | 1014.2 hPa | 0 mm | - | 422 W/m² | - |
| 1777563818 | 18.89° C | 68% | 1014.3 hPa | 0 mm | - | 413 W/m² | - |
| 1777563515 | 18.89° C | 62% | 1014.2 hPa | 0 mm | - | 535 W/m² | - |
| 1777563214 | 18.89° C | 61% | 1014.2 hPa | 0 mm | - | 460 W/m² | - |
| 1777562911 | 18.89° C | 63% | 1014.1 hPa | 0 mm | - | 579 W/m² | - |
| 1777562607 | 18.89° C | 66% | 1014.2 hPa | 0 mm | - | 573 W/m² | - |
| 1777562306 | 18.89° C | 63% | 1014.2 hPa | 0 mm | - | 587 W/m² | - |
| 1777562003 | 18.33° C | 67% | 1014 hPa | 0 mm | - | 633 W/m² | - |
| 1777561700 | 18.33° C | 72% | 1014.2 hPa | 0 mm | - | 542 W/m² | - |
| 1777561395 | 17.78° C | 66% | 1014.2 hPa | 0 mm | - | 556 W/m² | - |
| 1777561091 | 17.22° C | 73% | 1014.1 hPa | 0 mm | - | 552 W/m² | - |
| 1777560786 | 17.22° C | 70% | 1013.8 hPa | 0 mm | - | 336 W/m² | - |
| 1777560484 | 17.78° C | 71% | 1013.7 hPa | 0 mm | - | 449 W/m² | - |
| 1777560182 | 17.22° C | 72% | 1014.1 hPa | 0 mm | - | 445 W/m² | - |
| 1777559879 | 16.67° C | 75% | 1014 hPa | 0 mm | - | 612 W/m² | - |
| 1777559579 | 16.67° C | 73% | 1014.3 hPa | 0 mm | - | 404 W/m² | - |
| 1777559277 | 16.67° C | 73% | 1014.3 hPa | 0 mm | - | 317 W/m² | - |
| 1777558972 | 16.67° C | 78% | 1014.2 hPa | 0 mm | - | 389 W/m² | - |
| 1777558668 | 16.67° C | 78% | 1014 hPa | 0 mm | - | 387 W/m² | - |
| 1777558364 | 16.67° C | 79% | 1014.2 hPa | 0 mm | - | 317 W/m² | - |
| 1777558061 | 16.11° C | 78% | 1014 hPa | 0 mm | - | 335 W/m² | - |
| 1777557757 | 16.11° C | 79% | 1014.3 hPa | 0 mm | - | 272 W/m² | - |
| 1777557454 | 16.11° C | 80% | 1014 hPa | 0 mm | - | 275 W/m² | - |
| 1777557150 | 15.56° C | 81% | 1014.2 hPa | 0 mm | - | 215 W/m² | - |
| 1777556846 | 15.56° C | 83% | 1014.1 hPa | 0 mm | - | 227 W/m² | - |
* Rain latest hour (hover to see other rain measurements)
** Current wind speed in m/s (hover to see current wind gust speed)